Wind_Speed
14 13 13 12 14 14 11 8 8 7 7 6 5 3 3 2 2 2 2 2 2 3 3 3 4 4 4 5 5 5 5 5 4 3 3 3 3 3 3 2 2 2 3 2 3 4 3 2 2
13 12 11 12 14 11 9 9 9 8 8 7 5 4 3 3 3 2 2 2 3 3 3 4 5 5 5 5 5 5 5 5 4 4 3 3 3 3 3 3 3 3 3 4 4 4 3 3 3
13 12 12 14 12 9 9 9 9 9 8 7 5 4 3 3 3 2 2 3 3 4 4 4 4 4 5 5 5 5 5 5 5 4 4 4 4 4 4 3 3 4 4 4 3 4 4 3 3
12 13 16 15 12 11 10 10 10 9 8 7 6 5 4 3 3 2 3 4 4 5 5 5 5 5 5 5 5 4 5 5 5 5 5 4 5 5 4 4 4 5 5 5 4 4 4 3 3
12 15 14 13 12 11 11 11 10 10 10 9 7 6 5 4 3 3 3 4 4 5 5 6 6 5 5 5 5 5 5 5 5 5 4 4 4 5 5 5 5 5 5 5 5 5 4 4 3
13 15 13 12 11 11 11 11 11 11 10 9 8 7 6 5 5 4 4 4 4 5 5 5 5 5 5 5 5 5 5 5 5 5 5 5 5 5 6 6 5 5 5 5 5 5 5 4 3
13 14 11 11 11 11 10 10 11 11 10 10 9 8 7 6 6 6 5 4 4 4 5 5 5 5 5 5 5 4 4 4 4 4 4 4 5 5 6 6 6 6 6 6 5 5 5 5 4
13 11 10 9 9 9 9 10 10 11 11 11 10 9 8 7 7 6 5 4 4 4 5 5 4 4 4 4 5 5 4 4 4 4 4 4 4 5 5 5 5 6 6 6 6 6 6 5 6
11 11 8 8 8 8 8 9 9 10 11 11 11 10 9 8 7 7 6 5 5 5 4 4 4 4 4 3 3 4 5 4 4 4 4 4 4 5 5 5 5 5 6 6 7 7 7 6 6
8 7 6 7 8 8 9 10 11 11 11 11 11 10 9 9 8 7 7 6 5 5 4 4 4 4 4 4 4 3 4 4 4 4 4 4 4 4 4 5 5 4 5 6 7 8 8 8 7
6 5 6 7 8 9 9 10 10 11 11 11 11 10 9 9 8 8 7 6 5 5 5 5 4 4 4 5 5 4 4 4 3 3 3 3 3 4 4 5 5 5 6 7 8 8 9 9 8
6 5 6 7 8 9 10 10 10 11 11 11 11 10 9 9 9 9 8 7 6 5 5 5 5 5 5 5 4 4 4 4 4 3 3 3 3 4 4 4 4 5 5 6 7 8 8 8 8
5 6 6 7 8 8 9 10 10 10 10 10 10 10 10 10 9 9 8 7 6 5 5 5 5 5 5 5 5 5 5 4 4 3 3 4 3 3 4 4 4 4 5 5 6 6 7 7 8
4 4 5 6 8 7 8 9 10 10 10 10 10 10 10 10 9 9 8 7 6 6 6 5 5 5 5 6 6 6 5 4 4 3 4 4 4 3 3 3 3 4 5 5 5 5 6 7 7
2 3 5 6 7 7 8 9 9 10 10 9 10 10 10 9 9 9 8 7 6 6 6 6 5 5 5 6 6 6 6 5 5 4 4 4 3 3 4 4 4 4 4 4 4 5 5 6 6
1 4 4 6 7 7 8 8 9 10 9 10 10 10 10 9 8 8 8 7 6 6 6 6 6 5 6 6 6 6 6 5 5 4 4 4 3 4 4 4 4 4 4 4 4 5 5 5 6
2 4 4 5 6 6 7 8 9 9 9 10 10 10 10 9 8 9 8 8 8 7 7 6 6 6 6 6 6 6 6 6 5 4 4 4 4 4 5 5 5 5 5 5 5 5 5 5 6
1 3 4 3 4 5 5 6 8 9 9 9 10 10 10 10 9 8 8 8 8 7 7 6 6 6 6 6 6 6 6 6 6 5 5 5 5 5 6 6 6 6 6 6 5 6 6 6 6
1 2 2 2 3 4 4 5 7 8 9 9 9 9 9 9 9 8 8 7 7 7 7 6 6 6 6 6 6 6 7 7 6 6 6 6 6 7 7 7 7 7 7 7 7 6 6 6 7
2 4 3 2 2 3 4 6 6 7 9 10 10 9 9 8 8 8 8 7 7 7 7 7 7 7 7 6 6 7 7 7 7 7 7 7 7 7 7 7 7 7 7 8 8 7 7 7 7
6 7 6 5 4 4 3 6 6 7 8 9 10 9 9 9 9 8 8 7 7 7 7 7 7 7 7 7 7 7 8 8 8 8 8 8 8 8 7 8 8 7 7 8 8 8 8 8 8
8 7 6 5 5 5 5 6 7 9 9 9 10 10 9 9 9 9 9 8 8 8 8 8 8 8 9 8 8 7 8 9 8 8 8 9 9 9 9 9 9 9 8 8 8 9 9 9 9
9 8 6 6 6 6 7 8 7 9 9 9 9 9 9 8 9 9 9 9 9 9 9 9 9 9 9 9 11 10 10 10 10 10 9 9 10 10 10 10 10 10 10 10 9 10 10 11 10
9 8 7 7 7 8 8 9 9 9 10 10 9 7 8 8 9 9 10 9 10 10 10 10 11 11 11 11 12 12 12 12 11 10 11 10 11 11 11 11 11 11 11 11 11 11 11 11 11
11 9 8 9 9 10 9 11 10 9 11 11 11 10 8 8 9 10 10 10 11 11 11 12 12 12 12 12 13 13 13 13 12 12 12 12 12 12 12 12 12 12 12 12 12 13 12 13 12
12 12 11 9 9 9 9 11 10 11 11 11 12 12 10 10 10 11 11 11 11 11 12 13 13 13 13 14 14 14 14 14 13 13 13 14 14 14 14 14 14 14 13 13 14 14 14 14 14
13 12 12 11 11 10 10 12 12 11 12 12 12 12 10 11 12 12 12 12 12 12 13 13 13 13 13 13 14 14 15 15 15 15 16 16 15 15 15 15 15 16 15 15 15 15 16 16 16
15 14 14 14 14 13 13 13 13 12 12 13 12 12 12 12 12 13 12 12 13 14 13 13 13 14 14 13 14 14 15 16 16 17 17 17 16 16 16 16 17 17 17 17 17 17 17 17 18
15 15 15 14 13 13 13 12 12 11 12 12 13 13 11 12 13 14 14 14 13 14 14 13 14 14 14 14 14 15 16 17 18 18 19 18 18 17 17 18 18 18 18 19 19 18 18 18 18
15 15 15 15 15 15 14 14 12 11 12 13 13 13 13 13 14 14 15 15 13 13 13 14 14 15 15 15 15 16 17 18 19 19 20 19 19 19 19 19 19 19 20 20 20 20 19 19 19
Wind_Direction
69 68 66 60 52 50 46 28 25 18 18 21 24 29 26 38 58 67 75 78 89 111 110 103 105 113 104 104 105 106 106 100 111 112 118 127 128 120 117 116 106 87 79 69 55 65 74 74 60
68 65 62 55 49 43 32 17 21 23 19 17 19 29 30 46 38 49 66 69 76 89 88 86 102 108 110 110 110 101 95 90 99 88 82 89 99 102 96 86 84 77 68 64 58 61 69 74 67
68 63 58 51 42 31 25 21 22 23 22 17 18 30 25 39 36 43 70 78 87 92 84 86 91 100 108 108 107 97 85 87 88 84 82 81 84 90 86 77 75 70 70 67 66 73 66 61 58
70 65 56 47 41 35 28 24 24 25 24 22 25 26 27 38 41 65 92 94 92 94 91 87 87 95 104 107 102 99 89 88 89 85 88 88 89 84 81 74 76 74 74 70 70 65 61 56 57
69 64 55 47 34 32 32 25 26 26 25 27 35 34 39 50 59 77 96 102 98 99 95 93 87 89 97 105 103 103 93 90 94 86 81 87 83 77 76 73 74 72 70 66 59 53 51 50 52
75 65 50 43 35 31 30 28 26 28 26 26 36 40 46 54 61 77 92 101 101 102 100 97 93 87 92 103 104 99 93 92 91 82 86 78 72 70 64 65 63 65 63 58 54 45 48 42 35
71 65 54 42 32 28 30 29 28 29 28 30 35 41 46 52 54 70 83 93 98 102 105 102 98 95 99 102 95 87 88 92 83 80 79 71 66 59 61 59 60 61 59 55 49 39 38 39 37
68 64 54 39 27 24 27 26 26 28 30 31 38 42 45 49 55 67 74 75 85 98 106 102 97 92 93 89 83 79 79 81 79 75 73 68 59 55 59 58 58 57 56 53 45 43 45 41 42
66 64 49 33 20 22 23 25 28 29 32 33 43 46 44 48 54 63 63 68 76 90 95 83 84 80 79 80 83 79 76 74 73 68 61 61 55 55 57 59 57 59 58 54 49 50 48 42 38
63 52 43 33 24 27 25 26 27 29 33 35 42 45 43 49 53 56 58 61 68 75 85 85 80 71 59 55 60 79 78 76 73 66 59 58 55 51 50 51 56 61 54 47 43 43 46 45 38
62 44 38 31 25 29 31 36 34 34 34 36 40 43 43 50 52 52 56 61 68 76 80 78 75 67 53 48 46 59 68 71 64 65 60 57 53 45 43 49 49 52 43 41 40 41 44 46 44
65 51 37 33 34 33 35 37 35 35 35 37 43 44 46 49 50 48 48 56 63 74 75 70 66 59 47 43 34 41 54 56 49 47 47 49 41 38 43 47 42 40 37 39 41 42 43 44 42
63 47 40 32 29 30 34 35 35 31 33 34 39 43 46 46 44 43 44 51 56 56 62 57 53 54 47 38 26 28 40 39 37 41 44 40 36 39 43 45 37 31 31 36 38 39 39 38 37
72 48 32 31 29 22 26 34 32 28 30 35 36 39 41 41 40 40 41 48 51 52 51 47 38 35 36 31 23 30 32 29 32 32 32 32 32 25 20 20 22 18 21 28 26 30 32 32 29
82 45 39 26 22 14 25 31 28 24 25 29 30 31 34 39 42 40 39 40 45 48 45 37 30 26 25 23 22 27 28 28 27 23 21 20 18 12 2 358 5 6 4 11 6 12 16 13 16
16 12 32 28 19 10 23 28 24 22 24 25 29 28 29 34 39 38 38 37 41 42 39 31 24 23 15 15 12 17 18 16 15 15 14 9 1 354 351 351 346 346 346 350 350 352 356 358 0
50 12 16 24 4 1 14 18 17 19 21 25 29 25 25 31 36 38 35 35 38 37 32 26 17 8 2 10 15 14 10 7 4 0 2 353 342 340 338 336 327 330 336 336 337 339 342 342 342
68 337 346 1 343 349 360 3 7 13 14 16 21 21 21 27 31 33 35 33 31 30 25 20 12 6 5 4 2 0 358 355 353 348 345 337 334 330 324 322 322 327 328 328 326 330 333 333 336
327 265 312 311 338 354 349 356 2 1 2 4 10 12 17 22 23 23 26 24 22 19 17 14 11 8 6 1 356 354 350 345 340 341 344 339 330 324 320 318 318 318 319 324 320 318 321 325 329
220 243 239 267 298 322 345 352 356 355 354 353 356 4 10 12 14 15 16 12 11 11 9 5 4 1 356 350 343 341 341 337 332 332 337 338 334 324 319 317 312 311 312 315 320 319 318 319 321
225 238 233 242 269 281 317 334 336 336 340 347 348 350 356 1 5 6 9 8 7 5 2 359 357 354 347 343 338 333 334 334 329 330 335 331 327 322 312 310 308 308 307 307 310 314 316 317 316
229 232 237 253 273 296 288 290 314 320 326 342 343 343 347 352 359 358 358 356 355 355 354 351 351 349 344 342 337 332 334 336 333 330 327 322 318 313 310 306 304 303 303 304 304 309 309 308 308
216 227 237 242 255 259 280 288 298 308 314 331 336 339 340 343 346 346 345 345 345 344 344 343 344 343 343 340 339 334 334 333 329 328 322 315 315 313 308 306 301 298 298 299 299 304 305 304 302
215 230 240 241 239 252 266 278 277 298 312 315 319 324 325 329 332 333 334 332 333 335 336 337 337 339 341 339 336 334 333 333 330 330 326 319 315 312 308 307 300 295 295 296 295 299 301 303 302
222 231 235 240 240 243 257 268 277 286 300 307 310 314 320 320 325 326 325 326 326 327 327 329 332 332 332 331 332 333 332 333 332 327 324 319 314 311 305 302 298 296 293 293 293 295 295 297 298
226 227 236 246 249 255 259 257 271 277 290 303 303 307 314 321 323 320 322 322 325 324 322 323 324 325 324 326 328 330 330 330 329 326 323 318 311 307 307 301 298 296 294 292 292 291 292 294 294
231 231 242 250 246 251 255 268 277 278 288 291 294 301 311 312 313 313 314 315 317 316 315 317 320 322 321 323 325 328 328 327 324 322 320 316 309 305 305 302 299 296 294 291 290 290 290 291 291
226 225 237 245 249 243 241 249 262 273 281 282 283 292 298 303 306 308 307 309 310 311 314 319 319 320 319 319 320 322 324 325 323 320 317 314 310 305 303 301 300 299 296 292 289 289 290 290 290
230 231 235 243 249 252 260 254 257 267 280 286 290 291 293 294 298 300 305 305 306 309 312 314 317 317 317 317 317 318 321 322 322 321 319 314 308 303 300 299 297 297 295 294 291 290 288 288 289
231 237 235 240 249 253 261 261 261 268 271 276 284 288 289 289 290 297 301 302 302 306 309 310 312 313 313 312 313 314 316 317 317 317 317 315 312 308 302 297 295 295 294 294 293 293 292 289 288
Height
5890 5889 5889 5889 5888 5887 5887 5887 5886 5884 5883 5882 5881 5880 5879 5879 5880 5881 5879 5877 5878 5877 5877 5877 5876 5877 5877 5878 5878 5879 5879 5879 5879 5879 5879 5879 5880 5880 5880 5881 5881 5881 5881 5881 5880 5880 5880 5880 5880
5892 5892 5892 5890 5890 5889 5890 5888 5887 5886 5884 5883 5882 5881 5880 5880 5880 5879 5878 5879 5879 5879 5878 5878 5877 5878 5879 5879 5880 5880 5880 5880 5881 5880 5880 5880 5881 5881 5881 5881 5881 5881 5881 5881 5881 5881 5881 5881 5881
5894 5894 5893 5891 5892 5892 5891 5890 5888 5887 5886 5884 5883 5883 5882 5881 5881 5880 5880 5880 5880 5880 5880 5879 5879 5880 5880 5881 5881 5882 5882 5882 5882 5882 5882 5882 5882 5882 5882 5882 5882 5882 5882 5882 5882 5881 5881 5881 5881
5897 5895 5895 5894 5894 5894 5893 5891 5890 5889 5887 5886 5885 5884 5882 5882 5881 5881 5881 5881 5881 5881 5881 5881 5881 5882 5882 5882 5883 5883 5883 5883 5883 5883 5883 5884 5883 5883 5884 5883 5883 5883 5883 5882 5882 5882 5882 5881 5881
5897 5896 5897 5897 5897 5896 5895 5893 5892 5890 5889 5887 5886 5885 5884 5883 5882 5882 5882 5882 5882 5883 5882 5882 5883 5883 5883 5884 5884 5884 5884 5885 5885 5885 5885 5885 5885 5885 5885 5884 5884 5884 5883 5883 5883 5883 5882 5882 5881
5898 5897 5899 5899 5899 5898 5897 5895 5894 5892 5891 5889 5888 5887 5885 5885 5884 5883 5883 5884 5884 5884 5884 5884 5884 5884 5885 5885 5885 5885 5886 5886 5886 5886 5886 5886 5886 5886 5886 5885 5885 5884 5884 5883 5883 5883 5882 5882 5881
5901 5901 5903 5903 5902 5901 5900 5898 5896 5894 5893 5891 5890 5888 5887 5886 5885 5885 5885 5885 5885 5885 5885 5886 5886 5886 5886 5886 5887 5887 5887 5887 5887 5887 5887 5887 5887 5887 5887 5886 5885 5885 5885 5885 5884 5883 5882 5881 5880
5903 5905 5905 5906 5905 5903 5902 5900 5898 5896 5894 5893 5891 5890 5889 5889 5887 5886 5886 5886 5886 5887 5887 5887 5887 5888 5888 5888 5888 5888 5888 5888 5888 5889 5889 5889 5889 5888 5888 5887 5887 5886 5886 5885 5885 5884 5883 5881 5881
5906 5908 5908 5908 5907 5905 5903 5902 5900 5898 5897 5895 5894 5892 5891 5890 5889 5888 5888 5888 5888 5888 5888 5889 5889 5889 5889 5889 5889 5889 5890 5890 5890 5890 5890 5890 5890 5889 5889 5888 5888 5888 5887 5886 5886 5884 5883 5882 5881
5909 5910 5910 5910 5909 5907 5905 5903 5902 5900 5899 5897 5896 5894 5893 5892 5891 5891 5890 5890 5890 5890 5890 5890 5890 5891 5891 5891 5891 5890 5891 5891 5891 5891 5891 5891 5891 5891 5890 5890 5889 5889 5888 5888 5887 5885 5884 5883 5882
5912 5912 5912 5911 5910 5908 5907 5906 5904 5903 5901 5899 5897 5896 5895 5894 5893 5892 5892 5892 5891 5891 5891 5891 5892 5892 5892 5892 5892 5892 5892 5892 5892 5892 5892 5892 5892 5892 5891 5891 5890 5890 5889 5889 5888 5886 5885 5884 5884
5914 5914 5914 5913 5912 5910 5909 5908 5906 5905 5904 5902 5900 5898 5897 5896 5895 5894 5893 5893 5893 5893 5893 5893 5893 5893 5893 5893 5893 5893 5893 5893 5893 5893 5893 5893 5893 5893 5892 5892 5891 5891 5890 5890 5889 5888 5887 5887 5886
5915 5915 5915 5914 5913 5912 5911 5910 5908 5907 5905 5903 5902 5900 5899 5898 5897 5896 5895 5895 5894 5894 5894 5894 5894 5894 5894 5895 5894 5894 5894 5894 5894 5894 5894 5894 5893 5893 5893 5893 5892 5892 5891 5891 5890 5890 5889 5888 5887
5916 5916 5916 5915 5915 5914 5912 5911 5910 5908 5907 5905 5904 5903 5901 5900 5899 5898 5897 5896 5896 5896 5896 5896 5896 5896 5896 5896 5895 5895 5895 5895 5895 5895 5894 5894 5894 5894 5894 5894 5893 5893 5892 5892 5891 5891 5890 5889 5888
5917 5917 5917 5916 5916 5915 5914 5912 5911 5910 5908 5907 5906 5904 5903 5902 5901 5900 5899 5898 5898 5897 5897 5897 5897 5897 5897 5897 5896 5896 5896 5896 5896 5895 5895 5895 5895 5895 5894 5894 5894 5894 5893 5893 5892 5892 5891 5890 5889
5916 5917 5918 5918 5917 5917 5916 5915 5913 5911 5910 5909 5907 5905 5904 5903 5902 5901 5900 5900 5899 5899 5899 5899 5899 5898 5898 5897 5897 5897 5897 5896 5896 5896 5896 5895 5895 5895 5895 5894 5894 5893 5893 5893 5893 5892 5891 5891 5890
5917 5918 5919 5919 5919 5918 5917 5915 5914 5913 5911 5910 5909 5907 5905 5904 5903 5903 5902 5901 5901 5900 5900 5899 5899 5899 5899 5898 5898 5897 5897 5897 5896 5896 5896 5895 5895 5895 5894 5894 5894 5893 5893 5893 5892 5891 5891 5890 5890
5920 5920 5920 5920 5920 5919 5918 5917 5916 5914 5913 5911 5910 5909 5907 5906 5905 5904 5903 5903 5902 5902 5901 5900 5900 5899 5899 5899 5898 5898 5897 5897 5896 5896 5896 5895 5895 5894 5894 5894 5893 5893 5893 5892 5891 5891 5890 5890 5889
5919 5920 5921 5921 5921 5920 5919 5918 5917 5915 5914 5912 5911 5910 5909 5907 5906 5905 5904 5904 5903 5903 5902 5901 5900 5900 5900 5899 5898 5898 5897 5897 5896 5895 5895 5895 5894 5894 5893 5893 5893 5892 5892 5891 5891 5890 5889 5889 5888
5920 5921 5921 5921 5921 5920 5919 5918 5917 5916 5915 5914 5912 5911 5910 5908 5907 5906 5905 5905 5904 5903 5902 5901 5901 5900 5900 5899 5898 5897 5897 5896 5896 5895 5895 5894 5893 5893 5892 5892 5892 5891 5891 5890 5890 5889 5888 5888 5887
5919 5920 5920 5921 5920 5919 5918 5918 5917 5917 5916 5915 5913 5912 5910 5909 5908 5907 5906 5905 5905 5904 5903 5902 5901 5900 5899 5899 5898 5897 5896 5896 5895 5895 5894 5893 5893 5892 5891 5891 5890 5890 5890 5889 5889 5888 5887 5886 5886
5918 5919 5919 5919 5919 5919 5919 5918 5917 5917 5915 5914 5913 5912 5910 5910 5909 5908 5907 5906 5905 5904 5903 5902 5901 5900 5899 5898 5898 5896 5896 5895 5894 5894 5893 5892 5891 5890 5890 5889 5888 5888 5888 5887 5887 5886 5885 5885 5884
5916 5917 5917 5918 5918 5918 5917 5916 5917 5915 5914 5914 5913 5912 5910 5910 5909 5908 5907 5906 5905 5904 5903 5902 5901 5900 5899 5897 5897 5896 5895 5894 5893 5892 5891 5891 5890 5889 5888 5887 5887 5886 5886 5885 5885 5884 5884 5883 5882
5914 5915 5916 5916 5916 5917 5917 5916 5915 5914 5914 5914 5912 5911 5910 5909 5908 5908 5907 5906 5905 5904 5903 5902 5901 5900 5899 5897 5896 5895 5894 5893 5892 5891 5890 5889 5888 5887 5886 5885 5885 5884 5883 5883 5882 5882 5881 5880 5879
5912 5913 5914 5915 5914 5916 5916 5915 5914 5913 5913 5912 5911 5910 5909 5909 5908 5907 5906 5906 5904 5903 5902 5901 5900 5899 5898 5897 5896 5894 5893 5891 5890 5889 5888 5886 5886 5885 5883 5883 5882 5881 5881 5880 5880 5879 5878 5878 5877
5909 5912 5912 5913 5913 5913 5914 5912 5912 5911 5912 5911 5910 5909 5908 5907 5907 5906 5905 5904 5903 5902 5901 5900 5899 5898 5897 5895 5894 5893 5891 5889 5888 5887 5885 5884 5883 5881 5880 5879 5879 5878 5877 5877 5876 5876 5875 5874 5874
5908 5910 5911 5911 5911 5911 5911 5910 5909 5910 5910 5910 5909 5908 5907 5907 5906 5905 5904 5903 5902 5901 5899 5898 5897 5896 5895 5894 5892 5891 5889 5887 5885 5884 5882 5881 5879 5878 5876 5875 5875 5874 5874 5873 5873 5872 5871 5871 5870
5905 5907 5908 5908 5906 5907 5908 5908 5907 5908 5908 5907 5907 5906 5906 5905 5904 5903 5903 5901 5900 5899 5897 5896 5895 5894 5893 5891 5890 5888 5886 5885 5883 5881 5879 5877 5876 5874 5873 5872 5871 5870 5869 5869 5868 5868 5867 5866 5866
5902 5904 5904 5906 5906 5905 5905 5906 5904 5905 5905 5905 5904 5904 5904 5903 5902 5901 5900 5899 5898 5897 5895 5894 5893 5892 5891 5889 5888 5886 5884 5882 5880 5878 5876 5873 5872 5870 5869 5868 5867 5866 5865 5864 5863 5863 5862 5862 5861
5899 5900 5902 5904 5904 5903 5903 5904 5902 5903 5904 5903 5903 5902 5902 5901 5900 5899 5898 5897 5896 5894 5894 5892 5891 5890 5888 5887 5885 5883 5881 5879 5877 5875 5873 5870 5868 5866 5865 5864 5862 5861 5860 5860 5859 5858 5857 5857 5856